COSMOS 2251 DEB, 33795

Orbit data source: Space-Track

COSMOS 2251 DEB, 33795 is space debris in LEO originally from a launch on Wed, 16 Jun 1993 UTC launched from the Plesetsk Missile And Space Complex (PKMTR). The debris from Iridium 33, an American commercial communications satellite, has been tracked extensively since its accidental collision with the defunct Russian satellite Cosmos 2251 in 2009. This event, occurring at high speed in low Earth orbit (LEO), generated thousands of pieces of space debris, significantly increasing the risk of further collisions. The Iridium 33 debris cloud has impacted space traffic management and orbital debris mitigation strategies, making it a subject of ongoing study in space situational awareness.

Loading next visibility...
Identifier
33795, 1993-036AL
Orbit
LEO
Country
Flag of CISCIS
Related business
Manufacturer
Unknown
Mission
Spacecraft
Bus & Motor
Unknown
Mass
Unknown
Launch date (UTC)
1993-06-16 (33 years ago)
Launch vehicle
Unknown
Launch site
Plesetsk Missile And Space Complex (PKMTR)
Object type
Payload
Rocket body
Debris
Shape & HBR
Unknown shape, 0.2 m
Radar Cross Section
Small (<0.1 m²)

Expand to show TLE details & history
Last TLE update: 9 hours ago

TLE from 9 hours ago
0 COSMOS 2251 DEB
1 33795U 93036AL  26061.94864199  .00024658  00000-0  14996-2 0  9999
2 33795  74.0287 271.7292 0030328 332.1251 141.1922 15.09969578912304
Epoch: 2026-03-02T22:46Z
TLE epoch observation values (Epoch: 2026-03-02T22:46:02.667Z)
Latitude
61.92188°
Longitude
-82.76376°
Altitude
562.919 km
Speed
7.577 km/s
True Right ascension
03h 57m 55s
True Declination
61° 46' 29"
Sunlit
Object was in daylight at epoch
Visualization orbit readout
Latitude
Unknown
Longitude
Unknown
Altitude
Unknown
Speed
Unknown
Apparent Right ascension
Unknown
Apparent Declination
Unknown
Sunlit
N/A
Visualization observer readout
Local Sidereal Time
11:00:43
Azimuth
Unknown
Elevation
Unknown
Doppler factor
Unknown
Orbital elements
Apogee altitude
554.799 km
Perigee altitude
512.874 km
Semi-major axis
6,911.973 km
Eccentricity
0.00303
Inclination
74.0287°
RAAN
271.7292°
Arg. of periapsis
332.1251°
True anomaly
141.40936°
Mean anomaly
141.1922°
Eccentric anomaly
141.30084°
Mean motion
3.77694 °/min
Orbital period
95.32 mins
BSTAR
0.0014996
Loading maneuver chart data...
Computing Atmospheric mass density...

Documentation

Showing up to 5 results
|